Regional Weather Roundup
Issued by NWS Goodland, KS

Home | Current Version | Previous Version | Graphics & Text | Print | Product List | Glossary On
Versions: 1 2 3 4 5 6 7 8 9 10 11 12 13 14 15 16 17 18 19 20 21 22 23 24 25 26 27 28 29 30 31 32 33 34 35 36 37 38 39 40 41 42 43 44 45 46 47 48 49 50
000
ASUS43 KGLD 061159
RWRGLD

GOODLAND FORECAST AREA HOURLY WEATHER ROUNDUP
NATIONAL WEATHER SERVICE GOODLAND KS
500 AM MST SAT FEB 06 2016

...OFFICIAL OBSERVATIONS...

CITY           SKY/WX    TMP DP  RH WIND       PRES   REMARKS
GOODLAND KS    CLOUDY    22  10  60 W16       30.24F WCI   8
HILL CITY KS   CLOUDY    17  10  74 W7        30.29S
IMPERIAL NEB   CLOUDY    19   9  65 W15       30.22S WCI   5
MCCOOK NEB     CLOUDY    12   8  84 W8        30.25F
AKRON CO       CLOUDY    19   5  54 SW8       30.20F
BURLINGTON CO  CLOUDY    18   8  65 W13       30.24F WCI   5
LIMON CO       CLOUDY    -3  -7  82 NW6       30.23F
$$

...UNOFFICIAL OBSERVATIONS...

CITY           SKY/WX    TMP DP  RH WIND       PRES   REMARKS
COLBY KS       CLEAR     12   9  85 W9        30.26F
GOVE KS          N/A     14  32 100 MISG        N/A
LENORA KS        N/A     21  32 100 MISG        N/A
NORTON KS      CLEAR     16   9  73 W7        30.26S
SHARON SPRINGS   N/A     15  10  80 W8          N/A
KIT CARSON CO    N/A     14   6  70 MISG        N/A
YUMA CO          N/A     15   7  71 W12         N/A  WCI   2
$$



USA.gov is the U.S. government's official web portal to all federal, state and local government web resources and services.